This is the latest recevied weather packets stored in our database for station/object NK7E. If no packets are shown the sender has not sent any weather packets the latest 10 day(s).
| Time | Temp. | Humidity | Pressure | Rain* | Wind** | Luminosity | Snow |
|---|---|---|---|---|---|---|---|
| 1777593316 | 28.33° C | 14% | 1005.3 hPa | 0 mm | - | 144 W/m² | - |
| 1777592716 | 28.33° C | 13% | 1005.3 hPa | 0 mm | - | 190 W/m² | - |
| 1777592116 | 28.33° C | 14% | 1005.4 hPa | 0 mm | - | 138 W/m² | - |
| 1777591516 | 28.33° C | 14% | 1005.5 hPa | 0 mm | - | 162 W/m² | - |
| 1777590916 | 28.89° C | 14% | 1005.6 hPa | 0 mm | - | 197 W/m² | - |
| 1777590316 | 29.44° C | 14% | 1005.5 hPa | 0 mm | - | 247 W/m² | - |
| 1777589716 | 30° C | 14% | 1005.6 hPa | 0 mm | - | 220 W/m² | - |
| 1777589116 | 30.56° C | 14% | 1005.7 hPa | 0 mm | - | 216 W/m² | - |
| 1777588516 | 30.56° C | 14% | 1005.9 hPa | 0 mm | - | 281 W/m² | - |
| 1777587916 | 30.56° C | 14% | 1005.9 hPa | 0 mm | - | 346 W/m² | - |
| 1777587316 | 31.67° C | 14% | 1006.1 hPa | 0 mm | - | 407 W/m² | - |
| 1777586716 | 30.56° C | 13% | 1006.5 hPa | 0 mm | - | 681 W/m² | - |
| 1777586116 | 30° C | 14% | 1006.7 hPa | 0 mm | - | 411 W/m² | - |
| 1777585516 | 30.56° C | 14% | 1006.9 hPa | 0 mm | - | 948 W/m² | - |
| 1777584916 | 30° C | 14% | 1007.1 hPa | 0 mm | - | 919 W/m² | - |
| 1777584316 | 30° C | 13% | 1007.5 hPa | 0 mm | - | 1015 W/m² | - |
| 1777583716 | 30.56° C | 13% | 1007.6 hPa | 0 mm | - | 1028 W/m² | - |
| 1777583116 | 30.56° C | 13% | 1007.9 hPa | 0 mm | - | 1117 W/m² | - |
| 1777582516 | 30° C | 13% | 1008.3 hPa | 0 mm | - | 1205 W/m² | - |
| 1777581916 | 28.89° C | 14% | 1008.4 hPa | 0 mm | - | 1244 W/m² | - |
| 1777581316 | 28.89° C | 14% | 1008.6 hPa | 0 mm | - | 350 W/m² | - |
| 1777580716 | 28.89° C | 14% | 1008.6 hPa | 0 mm | - | 367 W/m² | - |
| 1777580116 | 28.89° C | 14% | 1008.7 hPa | 0 mm | - | 554 W/m² | - |
| 1777579516 | 28.89° C | 14% | 1008.9 hPa | 0 mm | - | 507 W/m² | - |
| 1777578916 | 28.89° C | 14% | 1009 hPa | 0 mm | - | 582 W/m² | - |
* Rain latest hour (hover to see other rain measurements)
** Current wind speed in m/s (hover to see current wind gust speed)